Location: Heiligenberg
(48.5381°N, 7.3897°E)
Time: 22:25:19
(UTC+00:00)

Cosmos 2322 - Pass Details

Date: 26 May 2022
Orbit: 840 x 855 km, 71.0° (Epoch: 03 July)

Event Time Altitude Azimuth Distance (km) Brightness Sun altitude
Exits shadow 00:20:31 21° 242° (WSW) 1,826 5.1 -19.4°
Maximum altitude 00:24:04 46° 306° (NW) 1,138 4.5 -19.2°
Drops below altitude 10° 00:29:35 10° 19° (NNE) 2,498 7.4 -19.0°
Sets 00:32:09 0° 26° (NNE) 3,437 8.4 -18.9°
